Погода в Хилгана

Россия / Республика Бурятия     53°54′58″N   110°05′28″E
темп.,
°C
ветер,
м/с
пор.,
м/с
влажн.,
%
обл.,
%
осадки,
мм/ч
давл.,
гПа
погр.,
м
7 марта, вс
вс723:00−15сз129069 0.2 102622
02:00−16ссз128554 0.3 102620
05:00−17ссз118412 0.0 102420
08:00−16ссв118211 0.0 102523
11:00−11в128756 0.0 1021125
14:00−8ююв128959 0.0 1019224
17:00−8ююз119072 0.0 101726
20:00−10з117063 0.0 101821
8 марта, пн
пн823:00−9з1264100 0.0 101722
02:00−8зюз3380100 0.1 101741
05:00−8зюз3387100 1.1 101748
08:00−9з249095 1.9 1019229
11:00−8з4157887 0.6 10191823
14:00−8з4157090 0.8 10212138
17:00−11зсз467452 0.1 1023598
20:00−16зсз437528 0.1 102734
9 марта, вт
вт923:00−18зсз32710 0.0 102925
02:00−18сз22600 0.0 103020
05:00−19с12587 0.0 102924
08:00−18с126921 0.0 102833
11:00−13св3377100 0.0 1024190
14:00−10в118572 0.0 1020148
17:00−8ююз129185 0.0 101985
20:00−10з129079 0.1 102134
10 марта, ср
ср1023:00−11з338122 0.0 102223
02:00−11сз339336 0.9 102395
05:00−12з338569 0.8 102540
08:00−15зсз438144 0.8 102852
11:00−10зюз12710 0.0 1028373
14:00−8юз13710 0.0 1027554
17:00−9з118116 0.0 1027133
20:00−14зсз226243 0.0 102921
11 марта, чт
чт1123:00−14сз12549 0.0 102921
02:00−14ссз115311 0.0 102721
05:00−15с22590 0.0 102722
08:00−14с22650 0.0 102722
11:00−9всв22780 0.0 1024119
14:00−6всв11850 0.0 1022125
17:00−6в01860 0.0 102031
20:00−9зюз11640 0.0 102221